Torna al catalogo

STARLINK-4108

AttivoComunicazioniVLEO
NORAD 52834·PAYLOAD·🇺🇸 United States

Lanciato Jun 17, 2022 da Cape Canaveral Space Force Station

Loading…

Prossimi Passaggi (prossime 24 ore)

TLE

AggiornatoSource: CelesTrak SupGP

Epoca: Sep 14, 2026, 21:43 UTC

1 52834C 22062E   26257.90534722  .00037663  00000+0  12109-2 0  2574
2 52834  53.1576 254.8707 0001288  93.3668 110.5690 15.31690528    11

Traccia STARLINK-4108 in tempo reale con AllMySat

Download on the App Store